Regional Weather Roundup
Issued by NWS Raleigh/Durham, NC

Home | Current Version | Previous Version | Text Only | Print | Product List | Glossary On
Versions: 1 2 3 4 5 6 7 8 9 10 11 12 13 14 15 16 17 18 19 20 21 22 23 24 25 26 27 28 29 30 31 32 33 34 35 36 37 38 39 40 41 42 43 44 45 46 47 48 49 50
434
ASUS42 KRAH 301310
RWRRAH
NORTH CAROLINA WEATHER ROUNDUP
NATIONAL WEATHER SERVICE RALEIGH NC
900 AM EDT SAT JUL 30 2016

NOTE: "FAIR" INDICATES FEW OR NO CLOUDS BELOW 12,000 FEET WITH NO
SIGNIFICANT WEATHER AND/OR OBSTRUCTIONS TO VISIBILITY.

NCZ001-053-055-056-065-067-301400-
WESTERN NORTH CAROLINA

CITY           SKY/WX    TMP DP  RH WIND       PRES   REMARKS
ASHEVILLE      CLOUDY    72  66  81 NW5       30.10R HAZE
JEFFERSON      PTSUNNY   70  64  80 W9        30.13R
HICKORY        PTSUNNY   72  72 100 NW3       30.03R FOG
RUTHERFORDTON    N/A     73  72  96 CALM      30.05R
MOUNT AIRY     MOSUNNY   79  73  80 CALM      30.04S
BOONE          CLOUDY    70  64  82 W10       30.14S
$$

NCZ021-022-025-041-071-084-088-301400-
CENTRAL NORTH CAROLINA

CITY           SKY/WX    TMP DP  RH WIND       PRES   REMARKS
CHARLOTTE      PTSUNNY   81  70  69 W3        30.02R
GREENSBORO     PTSUNNY   81  71  71 VRB3      30.00R
WINSTON-SALEM  MOSUNNY   80  70  71 NE3       30.02R
RALEIGH-DURHAM CLOUDY    80  73  79 S6        29.99R
FORT BRAGG     LGT RAIN  83  72  69 S5        29.97R
FAYETTEVILLE   PTSUNNY   83  73  72 S6        29.97S
BURLINGTON     MOSUNNY   78  71  79 S5        29.99R
LAURINBURG     SUNNY     84  74  71 SW7       29.99R
$$

NCZ011-015-027-028-043-044-047-080-103-301400-
NORTHEASTERN NORTH CAROLINA

CITY           SKY/WX    TMP DP  RH WIND       PRES   REMARKS
ROCKY MT-WILSO CLOUDY    83  77  82 S5        29.98S
GREENVILLE     CLOUDY    86  77  74 S6        30.00S HX  97
WASHINGTON     SUNNY     84  78  80 SE6       29.98S HX  95
ELIZABETH CITY SUNNY     84  74  71 E7        29.99R
MANTEO         NOT AVBL
CAPE HATTERAS  SUNNY     85  79  82 SE8       29.98S HX  98
$$

NCZ078-087-090-091-093-098-101-301400-
SOUTHEASTERN NORTH CAROLINA

CITY           SKY/WX    TMP DP  RH WIND       PRES   REMARKS
LUMBERTON      SUNNY     84  76  76 S3        29.98R
GOLDSBORO      MOSUNNY   84  79  83 S5        29.97R HX  96
KINSTON        SUNNY     82  75  78 S3        29.99R
KENANSVILLE    NOT AVBL
NEW BERN       CLOUDY    85  77  77 SE3       29.99S HX  95
CHERRY POINT   CLOUDY    84  79  85 CALM      29.99R HX  96
BEAUFORT       PTSUNNY   84  80  88 MISG      29.98R HX  97
JACKSONVILLE   CLOUDY    83  76  79 SW3       29.98R
WILMINGTON     PTSUNNY   85  79  82 W8        29.99R HX  98
$$





USA.gov is the U.S. government's official web portal to all federal, state and local government web resources and services.